Radiation Dose at Monitoring Post of Fukushima Daini Nuclear Power Station
Date,Time,MP-1(microSv/h),MP-2(microSv/h),MP-3(microSv/h),MP-4(microSv/h),MP-5(microSv/h),MP-6(microSv/h),MP-7(microSv/h),Wind Direction,Wind Velocity(m/s),Rain
2017/09/06,00:00,0.350,0.215,0.356,0.328,0.319,0.174,0.105,north,1.9,No
2017/09/06,00:10,0.353,0.216,0.354,0.330,0.316,0.174,0.105,north-northwest,2.5,No
2017/09/06,00:20,0.352,0.214,0.355,0.330,0.319,0.172,0.105,north-northwest,1.6,No
2017/09/06,00:30,0.350,0.215,0.356,0.329,0.317,0.174,0.105,north,1.6,No
2017/09/06,00:40,0.354,0.216,0.353,0.332,0.315,0.174,0.106,north,1.2,No
2017/09/06,00:50,0.351,0.214,0.355,0.331,0.320,0.174,0.105,north,0.7,No
2017/09/06,01:00,0.352,0.216,0.354,0.329,0.317,0.174,0.106,-,CALM,No
2017/09/06,01:10,0.353,0.214,0.352,0.333,0.317,0.173,0.105,north-northeast,1.4,No
2017/09/06,01:20,0.350,0.215,0.357,0.328,0.320,0.174,0.106,north-northeast,2.2,Yes
2017/09/06,01:30,0.352,0.215,0.354,0.331,0.316,0.174,0.106,north,1.8,No
2017/09/06,01:40,0.354,0.215,0.356,0.330,0.320,0.173,0.105,north-northeast,1.4,Yes
2017/09/06,01:50,0.351,0.216,0.356,0.329,0.317,0.174,0.107,north,1.1,Yes
2017/09/06,02:00,0.356,0.215,0.354,0.333,0.319,0.174,0.107,north,1.0,Yes
2017/09/06,02:10,0.352,0.217,0.357,0.329,0.321,0.174,0.106,north,1.2,Yes
2017/09/06,02:20,0.353,0.216,0.355,0.331,0.318,0.175,0.108,north,1.2,Yes
2017/09/06,02:30,0.354,0.216,0.356,0.332,0.319,0.175,0.107,-,CALM,No
2017/09/06,02:40,0.350,0.216,0.357,0.330,0.321,0.175,0.107,-,CALM,Yes
2017/09/06,02:50,0.356,0.216,0.354,0.332,0.317,0.176,0.107,north-northwest,0.9,Yes
2017/09/06,03:00,0.352,0.217,0.359,0.329,0.324,0.175,0.108,north-northwest,1.1,Yes
2017/09/06,03:10,0.354,0.216,0.356,0.333,0.318,0.176,0.108,north,1.0,Yes
2017/09/06,03:20,0.355,0.218,0.358,0.333,0.321,0.177,0.109,northeast,6.7,Yes
2017/09/06,03:30,0.352,0.220,0.357,0.331,0.320,0.177,0.111,north,10.4,Yes
2017/09/06,03:40,0.357,0.219,0.356,0.334,0.319,0.178,0.111,west-northwest,1.8,Yes
2017/09/06,03:50,0.354,0.221,0.359,0.332,0.322,0.177,0.111,north,2.5,Yes
2017/09/06,04:00,0.353,0.219,0.357,0.334,0.319,0.179,0.110,north,2.2,Yes
2017/09/06,04:10,0.354,0.220,0.358,0.330,0.320,0.177,0.110,north-northwest,1.9,No
2017/09/06,04:20,0.351,0.217,0.356,0.331,0.318,0.177,0.110,-,CALM,No
2017/09/06,04:30,0.354,0.218,0.357,0.331,0.316,0.176,0.108,-,CALM,Yes
2017/09/06,04:40,0.352,0.216,0.355,0.328,0.320,0.175,0.108,east,1.0,Yes
2017/09/06,04:50,0.352,0.217,0.353,0.330,0.316,0.175,0.108,south-southwest,4.2,Yes
2017/09/06,05:00,0.353,0.217,0.356,0.327,0.319,0.175,0.107,north,2.4,Yes
2017/09/06,05:10,0.349,0.216,0.353,0.330,0.317,0.174,0.108,north,3.4,Yes
2017/09/06,05:20,0.352,0.217,0.355,0.328,0.318,0.175,0.108,north,3.1,Yes
2017/09/06,05:30,0.351,0.215,0.351,0.329,0.319,0.173,0.107,north,2.3,Yes
2017/09/06,05:40,0.350,0.217,0.353,0.329,0.316,0.175,0.106,north,2.5,Yes
2017/09/06,05:50,0.351,0.214,0.354,0.327,0.318,0.174,0.107,north,3.7,No
2017/09/06,06:00,0.348,0.215,0.351,0.329,0.317,0.174,0.107,north,1.1,No
2017/09/06,06:10,0.352,0.215,0.355,0.326,0.315,0.174,0.106,north,0.6,Yes
2017/09/06,06:20,0.349,0.216,0.352,0.329,0.317,0.173,0.107,north,1.4,No
2017/09/06,06:30,0.350,0.214,0.353,0.328,0.316,0.173,0.105,north,1.6,Yes
2017/09/06,06:40,0.351,0.214,0.352,0.325,0.316,0.173,0.105,north,0.7,No
2017/09/06,06:50,0.347,0.214,0.350,0.328,0.316,0.172,0.105,north,0.7,No
2017/09/06,07:00,0.351,0.213,0.353,0.324,0.311,0.173,0.105,-,CALM,No
2017/09/06,07:10,0.348,0.213,0.350,0.328,0.316,0.173,0.105,-,CALM,No
2017/09/06,07:20,0.348,0.213,0.352,0.328,0.315,0.171,0.105,-,CALM,No
2017/09/06,07:30,0.352,0.213,0.351,0.323,0.314,0.173,0.104,-,CALM,No
2017/09/06,07:40,0.346,0.213,0.350,0.326,0.317,0.172,0.104,-,CALM,No
2017/09/06,07:50,0.348,0.212,0.352,0.326,0.313,0.172,0.104,north,0.8,Yes
2017/09/06,08:00,0.349,0.213,0.350,0.324,0.315,0.173,0.105,-,CALM,Yes
2017/09/06,08:10,0.346,0.215,0.350,0.328,0.316,0.171,0.106,-,CALM,Yes
2017/09/06,08:20,0.350,0.214,0.352,0.326,0.314,0.173,0.105,-,CALM,Yes
2017/09/06,08:30,0.351,0.214,0.350,0.326,0.315,0.173,0.106,-,CALM,Yes
2017/09/06,08:40,0.347,0.214,0.354,0.329,0.317,0.173,0.104,east-northeast,0.6,Yes
2017/09/06,08:50,0.352,0.214,0.353,0.327,0.314,0.174,0.104,east-northeast,0.5,Yes
2017/09/06,09:00,0.351,0.216,0.350,0.329,0.318,0.174,0.106,east-southeast,0.5,Yes
2017/09/06,09:10,0.348,0.215,0.354,0.329,0.319,0.173,0.106,-,CALM,Yes
2017/09/06,09:20,0.353,0.214,0.352,0.325,0.313,0.173,0.105,-,CALM,Yes
2017/09/06,09:30,0.350,0.216,0.350,0.329,0.316,0.174,0.105,east-southeast,0.7,Yes
2017/09/06,09:40,0.349,0.213,0.353,0.328,0.317,0.173,0.106,southeast,0.8,Yes
2017/09/06,09:50,0.350,0.214,0.350,0.325,0.314,0.173,0.105,south,1.6,Yes
2017/09/06,10:00,0.350,0.216,0.350,0.328,0.315,0.174,0.106,-,CALM,Yes
2017/09/06,10:10,0.347,0.215,0.353,0.328,0.318,0.174,0.107,south-southeast,1.2,Yes
2017/09/06,10:20,0.351,0.215,0.351,0.326,0.315,0.172,0.106,east-southeast,0.8,Yes
2017/09/06,10:30,0.352,0.215,0.353,0.329,0.316,0.174,0.105,east-southeast,0.8,Yes
2017/09/06,10:40,0.348,0.214,0.352,0.328,0.317,0.173,0.106,south,1.5,Yes
2017/09/06,10:50,0.351,0.214,0.349,0.325,0.316,0.173,0.105,east-southeast,1.0,Yes
2017/09/06,11:00,0.352,0.216,0.354,0.329,0.314,0.174,0.106,east-southeast,0.7,Yes
2017/09/06,11:10,0.348,0.215,0.352,0.329,0.319,0.175,0.106,south-southeast,1.8,Yes
2017/09/06,11:20,0.349,0.213,0.350,0.324,0.316,0.174,0.105,south-southeast,2.6,Yes
2017/09/06,11:30,0.351,0.215,0.354,0.329,0.314,0.174,0.106,south-southeast,3.5,Yes
2017/09/06,11:40,0.350,0.213,0.352,0.328,0.318,0.174,0.105,south-southeast,4.0,Yes
2017/09/06,11:50,0.349,0.214,0.349,0.326,0.315,0.174,0.105,south-southeast,4.7,Yes
2017/09/06,12:00,0.351,0.216,0.353,0.330,0.313,0.174,0.106,south-southeast,4.3,Yes
2017/09/06,12:10,0.348,0.213,0.352,0.326,0.317,0.174,0.105,south-southeast,4.8,Yes
2017/09/06,12:20,0.350,0.215,0.350,0.325,0.315,0.172,0.105,south-southeast,4.8,Yes
2017/09/06,12:30,0.352,0.215,0.353,0.329,0.314,0.175,0.105,south,4.6,Yes
2017/09/06,12:40,0.348,0.213,0.350,0.325,0.316,0.173,0.106,south,4.4,Yes
2017/09/06,12:50,0.349,0.216,0.352,0.327,0.315,0.174,0.105,south,4.9,Yes
2017/09/06,13:00,0.350,0.215,0.352,0.331,0.316,0.174,0.106,south,4.5,Yes
2017/09/06,13:10,0.348,0.215,0.349,0.325,0.319,0.175,0.105,south,4.0,Yes
2017/09/06,13:20,0.350,0.216,0.351,0.331,0.315,0.174,0.106,south,4.3,Yes
2017/09/06,13:30,0.349,0.213,0.350,0.328,0.316,0.175,0.105,south,5.2,Yes
2017/09/06,13:40,0.347,0.216,0.350,0.325,0.316,0.173,0.105,south,4.3,Yes
2017/09/06,13:50,0.351,0.214,0.352,0.327,0.312,0.174,0.106,south,3.9,Yes
2017/09/06,14:00,0.347,0.213,0.349,0.326,0.317,0.174,0.105,south,3.9,Yes
2017/09/06,14:10,0.347,0.214,0.350,0.326,0.314,0.172,0.105,south,2.9,Yes
2017/09/06,14:20,0.350,0.213,0.348,0.327,0.312,0.172,0.104,south-southeast,2.5,No
2017/09/06,14:30,0.346,0.212,0.348,0.324,0.317,0.171,0.104,south-southeast,2.9,No
2017/09/06,14:40,0.345,0.212,0.349,0.326,0.314,0.171,0.103,south,3.4,Yes
2017/09/06,14:50,0.349,0.211,0.348,0.326,0.312,0.171,0.102,south,2.8,Yes
2017/09/06,15:00,0.345,0.212,0.349,0.323,0.315,0.171,0.102,south,2.2,Yes
2017/09/06,15:10,0.346,0.213,0.349,0.327,0.312,0.171,0.103,south-southeast,1.8,Yes
2017/09/06,15:20,0.349,0.211,0.346,0.324,0.313,0.172,0.102,south,1.9,Yes
2017/09/06,15:30,0.345,0.213,0.350,0.324,0.315,0.170,0.101,south-southeast,1.9,No
2017/09/06,15:40,0.347,0.212,0.348,0.327,0.311,0.170,0.102,south-southeast,2.1,Yes
2017/09/06,15:50,0.348,0.210,0.346,0.324,0.314,0.172,0.101,south-southeast,2.3,No
2017/09/06,16:00,0.345,0.212,0.350,0.324,0.315,0.170,0.103,south-southeast,2.5,No
2017/09/06,16:10,0.347,0.213,0.348,0.326,0.312,0.170,0.102,south-southeast,2.0,No
2017/09/06,16:20,0.349,0.211,0.347,0.323,0.315,0.171,0.102,southeast,0.7,No
2017/09/06,16:30,0.344,0.212,0.351,0.323,0.314,0.171,0.101,south,0.9,No
2017/09/06,16:40,0.346,0.211,0.346,0.324,0.312,0.171,0.103,south-southeast,0.5,No
2017/09/06,16:50,0.348,0.211,0.349,0.324,0.314,0.172,0.103,-,CALM,No
2017/09/06,17:00,0.345,0.212,0.349,0.325,0.314,0.170,0.104,south-southeast,1.1,No
2017/09/06,17:10,0.347,0.210,0.347,0.325,0.310,0.171,0.104,east-southeast,0.8,No
2017/09/06,17:20,0.348,0.212,0.350,0.322,0.315,0.172,0.103,east-southeast,0.9,No
2017/09/06,17:30,0.345,0.212,0.347,0.325,0.313,0.170,0.104,east,0.5,No
2017/09/06,17:40,0.349,0.210,0.346,0.326,0.311,0.171,0.104,east,0.7,No
2017/09/06,17:50,0.347,0.213,0.349,0.322,0.315,0.172,0.104,east-northeast,1.0,No
2017/09/06,18:00,0.346,0.211,0.346,0.327,0.312,0.169,0.104,north-northeast,1.2,No
2017/09/06,18:10,0.350,0.211,0.347,0.324,0.310,0.171,0.104,north-northeast,1.3,No
2017/09/06,18:20,0.346,0.212,0.350,0.324,0.315,0.171,0.104,north-northeast,0.8,No
2017/09/06,18:30,0.345,0.210,0.347,0.326,0.312,0.170,0.103,northeast,1.0,No
2017/09/06,18:40,0.348,0.212,0.349,0.323,0.314,0.172,0.104,north-northeast,0.7,No
2017/09/06,18:50,0.345,0.211,0.349,0.324,0.315,0.171,0.104,north-northeast,1.2,No
2017/09/06,19:00,0.347,0.211,0.347,0.326,0.311,0.170,0.103,north-northeast,2.2,No
2017/09/06,19:10,0.348,0.212,0.349,0.323,0.316,0.172,0.103,north-northeast,2.2,No
2017/09/06,19:20,0.345,0.211,0.347,0.325,0.313,0.170,0.104,north-northeast,1.5,No
2017/09/06,19:30,0.347,0.211,0.349,0.325,0.312,0.170,0.103,northeast,1.0,No
2017/09/06,19:40,0.348,0.211,0.349,0.321,0.316,0.171,0.103,north-northeast,0.9,No
2017/09/06,19:50,0.346,0.210,0.347,0.326,0.313,0.170,0.104,north,1.1,No
2017/09/06,20:00,0.349,0.213,0.349,0.324,0.313,0.171,0.103,north-northeast,1.1,No
2017/09/06,20:10,0.347,0.211,0.348,0.324,0.315,0.170,0.103,northeast,1.0,No
2017/09/06,20:20,0.345,0.212,0.348,0.326,0.311,0.170,0.104,west-northwest,1.1,No
2017/09/06,20:30,0.348,0.213,0.350,0.323,0.313,0.172,0.103,northwest,0.6,No
2017/09/06,20:40,0.348,0.211,0.347,0.325,0.314,0.172,0.105,north,0.6,No
2017/09/06,20:50,0.347,0.212,0.349,0.324,0.311,0.170,0.103,north,1.1,No
2017/09/06,21:00,0.350,0.212,0.348,0.324,0.316,0.171,0.104,north,0.5,Yes
2017/09/06,21:10,0.346,0.211,0.349,0.325,0.314,0.171,0.104,north,1.6,No
2017/09/06,21:20,0.348,0.213,0.350,0.323,0.311,0.171,0.103,north,1.4,No
2017/09/06,21:30,0.347,0.211,0.347,0.327,0.316,0.172,0.105,north,2.3,No
2017/09/06,21:40,0.345,0.212,0.349,0.326,0.312,0.171,0.104,north,3.2,Yes
2017/09/06,21:50,0.349,0.212,0.350,0.323,0.313,0.171,0.103,north,3.2,No
2017/09/06,22:00,0.347,0.210,0.348,0.326,0.316,0.172,0.105,north-northwest,2.2,No
2017/09/06,22:10,0.348,0.212,0.351,0.325,0.312,0.169,0.104,north,2.0,No
2017/09/06,22:20,0.350,0.210,0.349,0.326,0.315,0.172,0.104,north,1.8,No
2017/09/06,22:30,0.346,0.213,0.346,0.326,0.314,0.172,0.104,northwest,0.7,No
2017/09/06,22:40,0.348,0.211,0.351,0.324,0.313,0.170,0.104,-,CALM,No
2017/09/06,22:50,0.348,0.211,0.347,0.325,0.315,0.171,0.105,-,CALM,No
2017/09/06,23:00,0.347,0.212,0.349,0.326,0.314,0.170,0.104,north-northwest,1.7,No
2017/09/06,23:10,0.350,0.211,0.351,0.324,0.315,0.171,0.104,north-northwest,3.1,No
2017/09/06,23:20,0.347,0.213,0.348,0.326,0.316,0.172,0.104,north-northwest,3.3,No
2017/09/06,23:30,0.348,0.211,0.350,0.325,0.312,0.170,0.104,north-northwest,1.0,No
2017/09/06,23:40,0.348,0.212,0.347,0.325,0.316,0.171,0.104,north-northwest,2.5,No
2017/09/06,23:50,0.346,0.212,0.348,0.326,0.314,0.172,0.105,north,2.9,No
